Pine Bluff, AR

8:31 AM CDT on April 22, 2018 (GMT -0500)
Grider

Weather History for KPBF - September, 2012

Change the Weather History Date:

Monday, September 24, 2012

  Actual Average Record
Temperature  
Mean Temperature 67 °F 71 °F  
Max Temperature 78 °F 83 °F 99 °F (1921)
Min Temperature 55 °F 59 °F 43 °F (1918)
Degree Days  
Heating Degree Days 0 1  
Month to date heating degree days 1 4  
Since 1 July heating degree days 1 4  
Cooling Degree Days 2 7  
Month to date cooling degree days 246 251  
Year to date cooling degree days 2272 2009  
Growing Degree Days 16 (Base 50)    
Moisture  
Dew Point 54 °F    
Average Humidity 68    
Maximum Humidity 93    
Minimum Humidity 43    
Precipitation  
Precipitation 0.00 in 0.10 in 3.90 in (1984)
Month to date precipitation 4.80 1.96  
Year to date precipitation 35.29 35.15  
Snow  
Snow 0.00 in 0.00 in - ()
Month to date snowfall 0.0 0.0  
Since 1 July snowfall 0.0 0.0  
Since 1 September snowfall 0.0 0.0  
Snow Depth 0.00 in    
Sea Level Pressure  
Sea Level Pressure 30.15 in    
Wind  
Wind Speed 5 mph (SE)    
Max Wind Speed 10 mph    
Max Gust Speed 16 mph    
Visibility 10 miles    
Events      
T = Trace of Precipitation, MM = Missing Value Source: NWS Daily Summary

Daily Weather History Graph

Daily Weather History Graph

Search for Another Location

Airport or City:

Astronomy

Sep. 24, 2012 Rise Set
Actual Time 6:57 AM CDT 7:00 PM CDT
Civil Twilight 6:32 AM CDT 7:25 PM CDT
Nautical Twilight 6:03 AM CDT 7:55 PM CDT
Astronomical Twilight 5:33 AM CDT 8:24 PM CDT
Moon 3:35 PM CDT (9/24) 1:27 AM CDT (9/24)
Length of Visible Light 12h 53m
Length of Day
12h 03m
Waxing Gibbous, 71% of the Moon is Illuminated
Sep 24
Waxing Gibbous
Sep 29
Full
Oct 8
Last Quarter
Oct 15
New
Oct 21
First Quarter

Hourly Weather History & Observations

Time (CDT) Temp. Dew Point Humidity Pressure Visibility Wind Dir Wind Speed Gust Speed Precip Events Conditions
12:53 AM 57.9 °F 51.1 °F 78% 30.21 in 10.0 mi Calm Calm - N/A   Clear
1:53 AM 57.0 °F 50.0 °F 77% 30.22 in 10.0 mi ENE 4.6 mph - N/A   Clear
2:53 AM 55.9 °F 50.0 °F 80% 30.22 in 10.0 mi East 3.5 mph - N/A   Clear
3:53 AM 57.0 °F 48.9 °F 74% 30.22 in 10.0 mi ENE 4.6 mph - N/A   Mostly Cloudy
4:53 AM 57.9 °F 46.9 °F 67% 30.22 in 10.0 mi East 6.9 mph - N/A   Overcast
5:53 AM 57.9 °F 46.9 °F 67% 30.22 in 10.0 mi East 4.6 mph - N/A   Mostly Cloudy
6:53 AM 57.9 °F 50.0 °F 75% 30.22 in 10.0 mi Calm Calm - N/A   Overcast
7:53 AM 59.0 °F 50.0 °F 72% 30.23 in 10.0 mi East 3.5 mph - N/A   Overcast
8:53 AM 62.1 °F 48.9 °F 62% 30.24 in 10.0 mi ENE 5.8 mph - N/A   Mostly Cloudy
9:53 AM 63.0 °F 48.0 °F 58% 30.23 in 10.0 mi East 9.2 mph - N/A   Mostly Cloudy
10:53 AM 66.0 °F 50.0 °F 56% 30.23 in 10.0 mi East 6.9 mph - N/A   Overcast
11:53 AM 69.1 °F 50.0 °F 51% 30.21 in 10.0 mi East 6.9 mph - N/A   Partly Cloudy
12:53 PM 72.0 °F 48.0 °F 43% 30.19 in 10.0 mi SSE 10.4 mph - N/A   Clear
1:53 PM 75.0 °F 52.0 °F 44% 30.14 in 10.0 mi SSE 5.8 mph - N/A   Clear
2:53 PM 77.0 °F 55.0 °F 47% 30.11 in 10.0 mi South 3.5 mph - N/A   Clear
3:53 PM 78.1 °F 57.9 °F 50% 30.08 in 10.0 mi South 6.9 mph - N/A   Clear
4:53 PM 78.1 °F 60.1 °F 54% 30.06 in 10.0 mi South 4.6 mph - N/A   Clear
5:53 PM 77.0 °F 62.1 °F 60% 30.05 in 10.0 mi South 5.8 mph - N/A   Clear
6:53 PM 72.0 °F 64.0 °F 76% 30.05 in 10.0 mi SE 3.5 mph - N/A   Clear
7:53 PM 66.9 °F 64.0 °F 90% 30.04 in 10.0 mi SE 4.6 mph - N/A   Clear
8:53 PM 66.9 °F 62.1 °F 84% 30.05 in 10.0 mi South 4.6 mph - N/A   Clear
9:53 PM 64.9 °F 62.1 °F 90% 30.05 in 10.0 mi ESE 3.5 mph - N/A   Clear
10:53 PM 66.0 °F 63.0 °F 90% 30.04 in 10.0 mi SSE 5.8 mph - N/A   Clear
11:53 PM 68.0 °F 63.0 °F 84% 30.04 in 10.0 mi South 5.8 mph - N/A   Clear